La Paz, Mexico

12:10 AM MDT on April 26, 2017 (GMT -0600)
Gen Manuel Marquez De Leon

Weather History for MMLP - May, 2013

Change the Weather History Date:

Saturday, May 4, 2013

  Actual Average Record
Temperature  
Mean Temperature 78 °F -  
Max Temperature 96 °F 92 °F 100 °F (2014)
Min Temperature 59 °F 61 °F 55 °F (2000)
Cooling Degree Days 12    
Growing Degree Days 28 (Base 50)    
Moisture  
Dew Point 50 °F    
Average Humidity 50    
Maximum Humidity 94    
Minimum Humidity 10    
Precipitation  
Precipitation 0.00 in - - ()
Sea Level Pressure  
Sea Level Pressure 29.91 in    
Wind  
Wind Speed 8 mph ()    
Max Wind Speed 14 mph    
Max Gust Speed -    
Visibility 9.3 miles    
Events      
Averages and records for this station are not official NWS values.
T = Trace of Precipitation, MM = Missing Value Source: Averaged Metar Reports

Daily Weather History Graph

Daily Weather History Graph

Search for Another Location

Airport or City:

Trip Planner

Search our weather history database for the weather conditions in past years. The results will help you decide how hot, cold, wet, or windy it might be!

Date:

Astronomy

May. 04, 2013 Rise Set
Actual Time 6:44 AM MDT 7:51 PM MDT
Civil Twilight 6:20 AM MDT 8:15 PM MDT
Nautical Twilight 5:52 AM MDT 8:44 PM MDT
Astronomical Twilight 5:23 AM MDT 9:13 PM MDT
Moon 3:11 AM MDT (5/4) 3:23 PM MDT (5/4)
Length of Visible Light 13h 55m
Length of Day
13h 07m
Waning Crescent, 26% of the Moon is Illuminated
May 4
Waning Crescent
May 9
New
May 17
First Quarter
May 24
Full
May 31
Last Quarter

Hourly Weather History & Observations

Time (MDT) Temp. Dew Point Humidity Pressure Visibility Wind Dir Wind Speed Gust Speed Precip Events Conditions
2:50 AM 61 °F 58 °F 88% 29.87 in 2 mi South 11.2 mph - -  
5:47 AM 59.0 °F 55.4 °F 88% 29.93 in 10.0 mi South 5.8 mph - N/A   Clear
5:50 AM 60 °F 57 °F 87% 29.88 in 2 mi South 8.9 mph - -  
6:40 AM 57.2 °F 55.4 °F 94% 29.90 in 5.0 mi SSE 9.2 mph - N/A   Clear
7:40 AM 60.8 °F 57.2 °F 88% 29.92 in 5.0 mi SSE 8.1 mph - N/A   Clear
8:43 AM 64.4 °F 57.2 °F 77% 29.98 in 7.0 mi South 11.5 mph - N/A   Clear
9:46 AM 69.8 °F 57.2 °F 64% 29.93 in 8.0 mi South 9.2 mph - N/A   Clear
10:43 AM 75.2 °F 53.6 °F 47% 29.92 in 10.0 mi SSE 8.1 mph - N/A   Clear
11:49 AM 82.4 °F 42.8 °F 25% 29.96 in 10.0 mi SSW 9.2 mph - N/A   Clear
11:50 AM 86 °F 58 °F 29% 29.90 in 19 mi South 6.7 mph - -  
12:42 PM 86.0 °F 41.0 °F 20% 29.88 in 10.0 mi SW 10.4 mph - N/A   Clear
1:42 PM 89.6 °F 39.2 °F 17% 29.87 in 12.0 mi WSW 8.1 mph - N/A   Clear
2:44 PM 91.4 °F 28.4 °F 10% 29.96 in 10.0 mi SSW 11.5 mph - N/A   Clear
2:50 PM 96 °F 49 °F 12% 29.84 in 19 mi SSW 6.7 mph - -  
3:42 PM 91.4 °F 32.0 °F 12% 29.83 in 10.0 mi WSW 11.5 mph - N/A   Clear
4:45 PM 89.6 °F 35.6 °F 15% 29.82 in 10.0 mi SSW 9.2 mph - N/A   Clear
5:45 PM 84.2 °F 41.0 °F 22% 29.96 in 10.0 mi SSW 13.8 mph - N/A   Clear
5:50 PM 90 °F 53 °F 19% 29.85 in 19 mi SSW 6.7 mph - -  
6:51 PM 78.8 °F 46.4 °F 32% 29.86 in 10.0 mi South 11.5 mph - N/A   Clear
7:51 PM 73.4 °F 50.0 °F 44% 29.89 in 10.0 mi SSW 9.2 mph - N/A   Clear
8:43 PM 68.0 °F 55.4 °F 64% 30.02 in 10.0 mi SSW 11.5 mph - N/A   Clear
8:50 PM 68 °F 59 °F 65% 29.94 in 2 mi South 6.7 mph - -  
9:44 PM 64.4 °F 55.4 °F 73% 29.95 in 10.0 mi SSW 9.2 mph - N/A   Clear
10:42 PM 64.4 °F 57.2 °F 77% 29.96 in 10.0 mi South 11.5 mph - N/A   Clear
11:50 PM 64 °F 60 °F 81% 29.96 in 2 mi South 8.9 mph - -